Wind_Speed
15 14 13 12 12 12 13 14 15 15 14 14 15 16 17 17 15 15 13 11 10 8 7 7 8 8 9 9 9 9 9 9 9 9 9 8 8 8 8 8 9 9 9 9 8 8 7 6 6
15 14 13 12 12 13 15 16 16 16 15 15 17 18 18 17 16 16 16 14 12 11 10 9 10 10 10 10 10 11 11 10 10 10 10 9 9 9 9 9 10 10 10 9 9 9 8 7 7
14 14 13 12 13 16 17 18 16 15 15 16 18 18 19 18 17 18 18 16 14 13 12 11 11 11 11 11 11 11 12 11 11 11 10 10 10 11 11 10 10 10 10 10 10 10 9 9 8
14 13 12 12 15 18 19 19 18 16 17 19 20 20 20 18 18 19 18 16 15 13 12 12 12 12 12 12 12 12 12 12 12 12 12 11 11 12 12 11 11 11 11 11 11 11 11 10 9
13 13 13 14 17 19 20 20 18 15 17 20 21 21 20 18 17 17 18 15 15 12 12 12 12 12 13 13 13 14 13 13 13 13 13 13 13 13 13 12 12 12 12 12 13 13 12 11 10
12 12 13 16 19 20 21 19 17 16 17 20 22 23 21 19 19 18 16 15 15 13 12 12 12 13 14 14 14 14 14 14 14 14 14 14 14 14 14 14 14 14 14 14 14 13 13 12 12
12 11 13 17 20 20 21 19 16 16 19 23 24 25 24 22 20 19 16 16 16 14 13 13 13 13 13 14 15 15 16 15 15 16 16 16 16 16 16 16 15 15 15 15 15 15 15 14 13
12 11 13 18 21 21 19 16 15 18 22 25 27 27 26 24 22 20 18 16 15 15 15 14 15 15 15 14 15 16 16 16 16 16 16 16 17 17 16 16 16 16 16 16 16 17 16 16 16
11 11 15 20 22 21 17 14 16 19 24 25 27 27 26 25 24 22 20 17 17 17 16 16 16 15 15 15 15 16 16 17 17 17 17 17 18 18 17 17 17 17 17 17 18 18 18 18 18
11 13 18 21 22 21 17 16 18 20 23 24 26 27 26 25 24 22 21 20 19 16 15 16 16 16 15 15 15 15 16 17 17 18 18 18 18 18 19 19 19 19 19 19 19 19 20 20 20
14 17 21 22 22 19 18 19 20 22 23 24 24 26 25 25 24 22 21 18 18 16 15 15 16 16 15 15 15 15 16 16 17 18 18 19 19 19 19 19 20 20 20 20 20 20 21 22 22
17 21 22 23 22 19 20 21 22 22 22 22 22 23 24 23 22 20 20 18 16 15 15 15 15 16 17 16 15 15 16 17 18 18 19 19 20 20 20 20 21 21 21 22 22 21 21 22 22
20 23 23 23 22 21 21 22 24 23 23 22 21 22 22 23 22 22 21 20 18 16 17 16 16 17 18 16 15 15 16 17 19 19 19 20 20 21 21 21 22 23 23 23 23 22 21 21 22
21 24 25 24 23 21 22 23 24 24 23 23 22 22 23 22 23 22 21 21 19 17 16 15 16 17 16 16 15 16 16 18 19 19 19 21 22 22 22 23 23 23 24 24 24 24 23 22 23
21 22 22 21 21 21 21 22 24 23 23 22 21 21 20 21 21 20 20 20 18 17 15 15 15 16 16 14 14 14 16 17 18 19 20 21 22 23 23 24 25 25 25 25 26 25 25 25 26
18 18 17 16 15 16 19 20 21 21 21 21 20 20 20 20 19 18 18 17 16 17 16 14 14 14 15 14 14 15 16 17 19 20 21 22 23 24 25 25 26 26 27 26 26 25 26 27 27
14 14 14 14 14 13 14 17 19 19 20 19 18 18 19 19 19 18 17 17 18 18 17 14 13 13 14 14 14 15 17 18 19 20 22 23 24 25 26 26 27 26 27 27 27 27 27 27 27
12 13 13 13 12 12 12 13 16 17 19 18 19 20 19 19 18 17 16 16 17 16 14 14 14 14 13 14 15 17 18 19 20 22 23 24 25 26 27 27 27 27 28 27 27 28 28 27 27
14 14 13 12 10 10 11 12 14 16 17 18 19 20 19 18 18 17 16 16 16 14 13 13 13 14 15 16 17 19 20 21 22 23 25 26 26 27 28 28 28 28 28 27 28 28 28 27 28
15 14 12 11 11 12 13 15 17 18 18 18 19 19 19 18 17 16 15 15 16 15 15 14 15 16 17 18 19 21 21 22 24 25 25 26 27 27 27 28 28 28 28 27 27 27 28 28 28
15 14 12 11 12 13 15 18 20 20 20 19 19 18 17 16 16 15 14 14 16 15 16 16 16 17 18 19 21 22 23 24 24 25 25 26 27 27 27 27 27 27 27 28 27 26 26 27 28
16 14 13 13 15 14 16 19 20 22 20 19 19 18 18 17 16 15 15 15 16 16 17 17 18 18 19 20 21 22 23 24 24 24 25 26 26 27 27 27 27 27 27 28 28 27 27 27 27
15 14 14 15 17 17 19 21 21 22 22 21 19 19 20 18 17 16 16 17 17 18 18 18 19 19 20 20 22 23 24 25 25 25 26 26 27 27 27 27 27 27 27 27 27 27 27 27 26
15 16 16 17 19 19 20 22 22 23 23 23 22 21 20 17 17 17 18 18 18 19 19 19 20 21 21 22 23 23 25 25 26 26 26 26 26 27 27 27 27 26 26 26 26 26 26 26 25
15 17 17 18 19 20 20 21 22 22 23 22 22 21 19 18 18 18 17 18 19 19 19 20 21 22 23 24 25 25 26 26 26 26 26 26 26 26 26 26 26 25 24 24 25 25 25 25 25
16 16 17 18 20 20 21 22 21 21 22 21 21 19 15 14 14 15 16 17 19 19 20 22 23 24 25 25 26 26 27 27 26 26 26 26 26 26 25 25 25 24 24 23 24 24 24 24 25
15 16 16 17 17 18 20 20 19 19 19 21 21 18 15 14 14 15 17 19 20 21 22 23 24 25 25 26 26 26 26 26 26 26 26 26 26 26 25 24 23 22 22 22 23 22 23 23 23
15 15 16 16 16 17 17 17 17 17 17 17 17 17 15 15 15 16 18 19 21 22 23 24 24 25 25 25 25 26 26 26 26 26 26 26 26 25 24 24 23 22 21 21 21 21 21 22 22
16 16 16 16 16 17 17 16 17 16 15 17 17 16 15 14 16 17 18 20 21 22 23 24 25 25 25 25 25 25 25 25 25 25 25 25 25 25 25 24 23 22 22 21 21 21 20 21 21
17 17 17 17 16 17 18 17 17 17 17 16 16 15 14 14 15 17 19 20 21 22 23 24 24 25 25 25 25 25 25 24 24 24 25 24 24 24 24 23 22 22 21 21 22 21 21 20 20
Wind_Direction
247 243 239 234 225 218 216 217 223 231 233 245 255 263 272 274 273 270 272 273 264 249 242 244 242 240 234 230 228 227 232 239 245 249 254 261 268 274 280 287 293 296 298 300 300 302 306 308 308
246 241 235 227 216 209 209 216 224 232 235 244 254 260 267 273 274 272 267 263 254 248 245 245 243 241 238 235 235 234 237 242 246 248 253 260 265 269 275 282 289 292 293 296 299 300 301 303 301
243 239 231 218 205 205 209 219 227 238 241 249 255 259 266 272 273 271 261 256 247 244 246 248 245 243 242 241 239 239 242 244 246 248 253 260 264 267 271 278 282 285 288 291 295 297 296 298 298
242 236 226 210 197 203 212 221 228 236 245 253 259 263 269 270 272 268 261 252 244 240 243 246 247 245 244 243 244 243 244 245 246 247 251 257 263 266 269 271 272 278 282 284 288 291 292 294 295
237 229 216 201 195 202 214 222 232 236 250 259 263 267 272 269 269 269 260 247 238 240 243 243 243 243 244 246 248 246 245 247 248 249 251 256 259 263 267 270 271 275 278 279 280 283 286 289 289
235 227 211 195 193 204 215 226 235 242 254 264 268 272 273 271 269 267 261 254 244 242 241 243 243 244 244 245 246 244 244 245 247 250 254 257 259 261 263 267 269 272 274 275 276 277 280 283 285
230 220 208 197 198 207 218 228 233 248 256 264 268 272 274 272 270 265 261 256 247 241 240 241 241 242 241 242 243 243 244 245 246 249 253 256 258 260 261 265 266 268 270 273 274 275 276 277 278
227 213 203 199 200 210 221 230 241 252 257 264 268 270 270 273 272 266 257 250 240 239 236 237 236 238 239 241 242 244 245 246 247 249 252 255 257 258 260 263 265 267 268 270 272 274 275 274 273
222 205 199 200 205 209 217 231 245 253 258 262 265 265 265 268 269 263 259 253 238 235 235 234 233 233 233 236 241 244 246 248 249 250 252 255 257 258 261 263 266 268 269 270 272 273 273 272 272
211 198 198 205 210 213 218 232 247 254 258 260 262 264 264 267 265 262 260 251 236 230 232 231 229 229 229 232 238 244 248 249 252 254 255 257 259 261 263 264 266 268 270 271 275 274 271 270 270
206 198 201 207 212 216 223 234 244 254 259 260 262 263 261 262 266 266 264 248 234 231 227 228 230 230 230 233 238 244 249 252 254 255 256 257 259 260 263 264 266 267 270 272 273 274 272 268 268
208 204 207 210 216 217 225 235 244 253 258 259 260 259 258 261 263 268 269 263 254 248 236 226 233 236 236 235 239 244 246 251 253 255 256 257 259 260 262 265 266 267 268 272 272 273 275 271 267
211 210 213 217 221 222 227 236 244 250 255 259 262 262 264 262 266 267 266 265 258 255 248 242 245 241 237 238 240 247 247 249 252 255 256 257 260 262 263 266 268 269 270 272 274 279 277 272 267
216 214 216 222 225 225 226 235 244 249 254 259 263 266 269 270 270 269 269 267 265 264 262 252 246 242 240 241 246 253 254 253 255 255 256 257 260 263 266 266 268 269 272 274 274 277 274 271 269
222 222 222 225 228 226 227 232 242 247 253 258 262 265 267 271 273 273 276 276 271 269 266 260 253 247 247 248 249 254 256 257 261 260 260 261 264 265 268 269 270 271 273 274 274 274 273 271 271
229 227 224 226 231 229 229 233 241 243 251 258 264 271 273 275 277 278 278 279 280 273 264 263 258 255 249 254 257 260 265 263 267 266 267 267 269 270 269 270 272 273 274 273 273 274 275 272 270
229 222 218 218 228 229 230 232 238 243 253 258 266 272 273 276 279 280 280 282 283 281 273 266 269 266 257 261 266 269 269 269 270 271 271 272 273 273 271 272 274 276 277 275 274 275 276 273 270
211 206 204 207 218 231 231 233 240 245 254 261 268 273 272 276 277 281 283 282 282 277 271 269 275 276 277 277 275 274 274 273 275 276 275 275 276 276 276 275 275 276 278 277 276 278 278 274 272
201 201 195 199 214 231 235 239 248 254 261 268 274 277 279 280 278 279 282 281 281 277 275 274 275 279 280 282 281 278 277 278 279 278 277 277 277 276 275 274 274 274 275 275 276 278 277 276 274
203 204 205 207 218 227 237 247 254 258 264 273 278 280 278 278 275 277 278 281 284 286 284 281 281 282 280 280 279 279 281 282 282 281 280 281 280 278 277 277 275 274 274 274 276 276 276 274 273
206 209 207 214 222 230 240 247 254 263 265 271 278 279 279 275 271 270 273 278 281 285 287 285 284 283 281 279 279 280 282 283 283 282 282 282 282 282 280 278 276 275 275 275 274 274 274 274 272
210 211 214 214 220 229 242 253 258 266 267 272 276 273 278 273 268 268 272 274 277 281 283 284 284 284 283 281 281 281 282 283 283 282 283 283 283 283 283 280 277 275 274 274 272 272 272 272 271
211 217 220 222 222 230 242 253 258 267 269 271 275 279 281 272 268 265 267 272 274 277 281 282 283 284 285 285 283 283 284 284 284 283 283 283 282 282 282 280 278 277 275 273 272 272 272 272 272
212 219 220 221 225 235 245 252 259 266 270 272 271 274 279 271 271 268 266 271 274 276 279 281 283 285 286 286 285 286 285 286 285 283 283 282 282 282 281 280 279 278 275 273 272 271 271 271 270
215 220 225 226 231 242 246 252 260 269 271 272 271 272 272 273 270 269 270 273 276 278 279 282 284 286 286 286 285 285 286 286 286 284 283 283 282 282 282 281 280 278 276 273 272 272 272 271 270
218 223 230 234 239 244 251 256 261 268 272 270 271 271 274 273 267 267 272 276 278 280 282 283 285 286 287 286 286 285 285 285 284 283 282 282 282 282 282 282 281 277 274 273 273 273 272 271 269
225 229 233 240 245 250 255 260 267 273 273 269 269 270 277 274 271 274 276 278 281 283 284 285 286 288 287 287 287 286 285 284 284 283 281 281 281 281 280 281 280 277 275 273 274 273 272 271 270
230 232 236 243 254 260 263 270 276 282 279 275 270 267 270 269 269 278 282 281 282 283 285 286 287 288 289 288 288 287 286 285 284 282 281 281 282 280 279 279 279 278 276 274 273 273 272 270 270
233 239 245 251 258 265 271 278 282 288 287 278 277 279 275 268 271 277 281 283 284 285 286 287 288 289 290 289 288 288 286 284 284 283 281 280 281 280 278 278 278 277 276 274 272 270 270 269 268
236 241 248 253 261 269 279 288 294 295 292 286 284 282 278 272 275 280 282 284 286 287 287 288 289 290 290 289 288 287 285 283 283 281 280 282 282 280 279 278 277 276 274 273 272 271 270 269 268
Height
5890 5892 5894 5896 5898 5898 5897 5897 5898 5898 5899 5900 5900 5900 5900 5901 5903 5905 5903 5902 5903 5902 5902 5903 5904 5904 5905 5905 5906 5906 5907 5907 5908 5908 5908 5908 5908 5908 5908 5908 5908 5907 5907 5906 5905 5905 5904 5903 5902
5888 5889 5891 5894 5895 5895 5895 5894 5895 5895 5897 5898 5898 5898 5898 5899 5900 5901 5900 5900 5901 5901 5901 5901 5902 5903 5904 5904 5905 5905 5906 5906 5907 5907 5907 5908 5908 5908 5907 5907 5907 5907 5906 5906 5905 5904 5903 5902 5902
5885 5886 5889 5891 5892 5892 5892 5892 5892 5893 5895 5895 5895 5895 5896 5898 5898 5898 5898 5897 5898 5899 5899 5900 5901 5901 5902 5903 5903 5904 5905 5905 5905 5906 5906 5906 5906 5906 5906 5906 5906 5906 5905 5905 5904 5903 5902 5901 5901
5882 5884 5886 5889 5889 5889 5889 5889 5889 5890 5891 5892 5892 5892 5893 5895 5895 5895 5894 5894 5895 5896 5897 5898 5898 5899 5900 5901 5901 5902 5903 5903 5904 5904 5904 5905 5905 5905 5905 5905 5905 5904 5904 5904 5903 5902 5901 5900 5900
5879 5881 5883 5885 5885 5886 5886 5886 5886 5887 5889 5889 5889 5889 5890 5891 5892 5891 5890 5891 5892 5893 5894 5895 5896 5897 5897 5898 5899 5900 5901 5901 5902 5902 5903 5903 5903 5903 5903 5903 5903 5903 5902 5902 5901 5900 5900 5899 5898
5876 5878 5880 5881 5882 5883 5883 5883 5883 5885 5886 5886 5887 5887 5887 5888 5889 5889 5888 5888 5889 5889 5890 5892 5893 5894 5895 5896 5897 5897 5898 5899 5900 5900 5900 5901 5901 5901 5901 5901 5901 5901 5900 5900 5899 5899 5898 5897 5897
5874 5876 5878 5879 5879 5880 5880 5880 5881 5883 5884 5883 5884 5884 5884 5885 5886 5886 5885 5884 5886 5887 5887 5889 5890 5891 5892 5893 5894 5895 5895 5896 5897 5897 5898 5898 5898 5898 5898 5898 5898 5898 5898 5898 5897 5896 5896 5895 5895
5870 5873 5875 5876 5876 5876 5877 5878 5879 5881 5881 5881 5881 5881 5881 5882 5882 5882 5880 5879 5881 5882 5884 5885 5887 5888 5890 5891 5891 5892 5892 5893 5893 5894 5894 5895 5895 5895 5895 5895 5895 5895 5895 5895 5894 5894 5893 5892 5892
5868 5871 5872 5872 5872 5873 5874 5876 5877 5878 5878 5878 5878 5877 5878 5878 5878 5877 5876 5876 5877 5878 5880 5882 5883 5885 5886 5887 5888 5888 5889 5890 5890 5890 5891 5891 5891 5891 5891 5891 5891 5891 5892 5891 5891 5891 5890 5889 5889
5865 5868 5868 5868 5869 5869 5870 5873 5874 5874 5874 5874 5874 5874 5874 5874 5873 5873 5873 5873 5872 5874 5877 5879 5880 5881 5882 5883 5884 5885 5885 5886 5886 5887 5887 5888 5888 5888 5888 5888 5888 5888 5888 5887 5887 5886 5886 5885 5885
5861 5864 5864 5864 5865 5865 5867 5869 5870 5871 5871 5872 5872 5871 5871 5871 5871 5870 5869 5868 5867 5870 5872 5874 5877 5878 5879 5879 5880 5881 5882 5882 5883 5883 5883 5884 5884 5884 5883 5883 5884 5884 5884 5883 5883 5882 5881 5881 5881
5857 5859 5859 5860 5861 5862 5864 5865 5867 5867 5868 5869 5869 5869 5868 5867 5867 5867 5867 5866 5866 5867 5869 5871 5873 5874 5875 5876 5877 5877 5878 5878 5879 5879 5879 5879 5880 5879 5879 5879 5879 5879 5879 5878 5878 5878 5877 5876 5876
5853 5855 5856 5856 5858 5859 5861 5862 5863 5863 5864 5865 5865 5865 5865 5864 5863 5864 5863 5862 5861 5862 5864 5866 5869 5870 5871 5872 5873 5873 5873 5874 5874 5874 5875 5875 5875 5875 5875 5875 5875 5874 5874 5873 5873 5872 5872 5871 5871
5849 5850 5851 5853 5855 5857 5858 5859 5859 5860 5861 5862 5862 5862 5861 5860 5859 5859 5858 5859 5859 5860 5861 5862 5864 5865 5865 5867 5868 5868 5869 5870 5870 5870 5870 5870 5870 5870 5870 5870 5869 5869 5869 5868 5868 5867 5866 5866 5866
5845 5847 5848 5849 5852 5854 5856 5856 5856 5857 5858 5859 5859 5859 5859 5859 5856 5856 5855 5855 5857 5858 5859 5859 5860 5860 5861 5863 5863 5863 5864 5865 5865 5865 5865 5865 5865 5864 5865 5864 5864 5863 5863 5862 5861 5861 5860 5860 5860
5842 5844 5846 5847 5848 5851 5854 5853 5852 5854 5854 5855 5855 5856 5856 5855 5853 5854 5854 5853 5854 5855 5856 5855 5854 5854 5857 5859 5859 5859 5860 5860 5860 5860 5860 5859 5859 5859 5859 5859 5858 5857 5857 5856 5856 5855 5855 5855 5854
5839 5841 5843 5845 5846 5847 5849 5849 5849 5850 5851 5851 5852 5853 5852 5852 5852 5852 5851 5852 5852 5851 5851 5851 5851 5851 5853 5854 5854 5854 5855 5856 5855 5855 5854 5854 5853 5853 5852 5852 5852 5851 5851 5850 5850 5849 5849 5848 5848
5837 5838 5839 5841 5843 5844 5844 5845 5845 5847 5847 5848 5849 5849 5848 5848 5849 5849 5849 5849 5848 5847 5847 5847 5848 5848 5848 5848 5848 5849 5849 5850 5849 5849 5848 5848 5847 5847 5846 5846 5845 5845 5844 5843 5843 5843 5842 5842 5842
5833 5834 5835 5838 5839 5840 5841 5842 5843 5843 5844 5845 5845 5845 5846 5846 5845 5845 5846 5845 5845 5844 5844 5844 5844 5844 5844 5845 5845 5845 5845 5844 5844 5843 5842 5841 5841 5840 5840 5839 5838 5838 5838 5837 5837 5836 5835 5835 5835
5830 5831 5833 5835 5836 5837 5837 5839 5839 5839 5840 5841 5841 5842 5842 5843 5842 5842 5842 5841 5841 5841 5841 5841 5841 5841 5841 5840 5840 5840 5840 5839 5838 5837 5836 5835 5834 5833 5833 5832 5832 5831 5831 5830 5830 5829 5828 5828 5827
5828 5829 5831 5832 5833 5834 5836 5836 5836 5836 5837 5837 5838 5838 5838 5839 5838 5838 5838 5838 5837 5837 5837 5837 5836 5836 5836 5836 5835 5834 5834 5833 5832 5831 5830 5829 5828 5826 5826 5825 5825 5824 5823 5823 5823 5822 5822 5821 5821
5825 5827 5828 5829 5831 5832 5834 5834 5834 5833 5834 5834 5834 5834 5834 5834 5834 5834 5834 5834 5834 5833 5832 5832 5831 5831 5831 5830 5829 5829 5828 5827 5826 5825 5824 5822 5821 5820 5819 5818 5817 5817 5816 5816 5815 5815 5815 5815 5814
5823 5824 5825 5826 5827 5829 5830 5831 5832 5831 5830 5831 5831 5830 5829 5828 5829 5829 5829 5830 5830 5829 5828 5828 5827 5826 5826 5825 5824 5823 5822 5821 5820 5818 5817 5816 5814 5813 5812 5811 5810 5810 5809 5808 5808 5808 5807 5807 5807
5820 5822 5822 5823 5825 5826 5827 5828 5828 5828 5828 5827 5827 5826 5825 5824 5824 5824 5825 5825 5825 5824 5823 5823 5822 5821 5820 5819 5818 5817 5816 5814 5813 5812 5810 5809 5807 5806 5805 5804 5803 5802 5801 5801 5801 5800 5800 5800 5800
5818 5820 5821 5821 5822 5824 5824 5824 5825 5824 5824 5823 5822 5822 5821 5821 5821 5821 5821 5820 5820 5819 5818 5817 5816 5815 5814 5813 5811 5810 5809 5807 5806 5804 5803 5802 5800 5799 5798 5797 5796 5795 5794 5794 5794 5793 5793 5793 5793
5815 5817 5819 5819 5820 5821 5821 5820 5821 5820 5819 5819 5818 5818 5817 5817 5817 5817 5816 5815 5814 5813 5812 5811 5810 5809 5807 5806 5805 5803 5801 5800 5799 5797 5796 5795 5793 5792 5791 5790 5788 5788 5786 5786 5787 5786 5785 5786 5786
5812 5813 5815 5816 5816 5817 5818 5818 5817 5816 5815 5814 5814 5813 5813 5813 5813 5812 5811 5810 5809 5807 5806 5805 5803 5802 5800 5799 5797 5796 5794 5792 5791 5790 5789 5788 5786 5785 5784 5783 5782 5781 5780 5780 5780 5779 5779 5779 5779
5810 5811 5812 5813 5813 5813 5814 5814 5814 5813 5811 5810 5810 5810 5809 5809 5809 5807 5806 5805 5803 5802 5800 5798 5796 5795 5793 5791 5790 5788 5786 5785 5784 5782 5781 5780 5779 5778 5777 5776 5775 5775 5774 5774 5773 5773 5773 5773 5773
5808 5809 5809 5809 5810 5810 5809 5812 5810 5808 5806 5805 5805 5805 5805 5804 5804 5802 5801 5799 5797 5795 5794 5792 5790 5788 5786 5784 5782 5781 5779 5778 5776 5775 5774 5773 5772 5771 5770 5769 5769 5768 5768 5767 5767 5766 5766 5766 5766
5805 5805 5806 5807 5806 5806 5806 5808 5805 5803 5802 5801 5800 5800 5800 5799 5798 5797 5795 5794 5792 5789 5787 5785 5783 5781 5779 5777 5775 5773 5772 5770 5769 5768 5767 5766 5765 5764 5763 5763 5762 5761 5761 5761 5760 5760 5760 5760 5760